Shelby, NC

11:31 AM EST on December 13, 2019 (GMT -0500)
Shelby Municipal

Weather History for KEHO - October, 2019

Change the Weather History Date:

Thursday, October 31, 2019

  Actual Average (WUND) Record (WUND)
Temperature  
Mean Temperature 61 °F -  
Max Temperature 76 °F - - (-1)
Min Temperature 45 °F - - (-1)
Degree Days  
Heating Degree Days 4    
Growing Degree Days 11 (Base 50)    
Moisture  
Dew Point 64 °F    
Average Humidity 89    
Maximum Humidity 100    
Minimum Humidity 47    
Precipitation  
Precipitation 0.25 in - - ()
Sea Level Pressure  
Sea Level Pressure 29.89 in    
Wind  
Wind Speed 8 mph (SSW)    
Max Wind Speed 18 mph    
Max Gust Speed 31 mph    
Visibility 8 miles    
Events Rain    
Averages and records for this station are not official NWS values.
T = Trace of Precipitation, MM = Missing Value Source: NWS Daily Summary

Daily Weather History Graph

Daily Weather History Graph

Search for Another Location

Airport or City:

Astronomy

Oct. 31, 2019 Rise Set
Actual Time 7:46 AM EDT 6:32 PM EDT
Civil Twilight 7:20 AM EDT 6:59 PM EDT
Nautical Twilight 6:50 AM EDT 7:29 PM EDT
Astronomical Twilight 6:20 AM EDT 7:58 PM EDT
Moon 11:27 AM EDT (10/31) 9:34 PM EDT (10/31)
Length of Visible Light 11h 38m
Length of Day
10h 46m
Waxing Crescent, 15% of the Moon is Illuminated
Oct 31
Waxing Crescent
Nov 4
First Quarter
Nov 12
Full
Nov 19
Last Quarter
Nov 26
New

Hourly Weather History & Observations

Time (EDT) Temp. Windchill Dew Point Humidity Pressure Visibility Wind Dir Wind Speed Gust Speed Precip Events Conditions
12:15 AM 64.9 °F - 64.9 °F 100% 30.00 in 0.2 mi SSE 8.1 mph - N/A   Drizzle
12:35 AM 67.1 °F - 67.1 °F 100% 30.00 in 0.5 mi South 8.1 mph - 0.03 in Rain Rain
12:55 AM 64.6 °F - 64.6 °F 100% 30.00 in 5.0 mi West 3.5 mph - 0.04 in   Drizzle
1:15 AM 64.6 °F - 64.6 °F 100% 30.00 in 4.0 mi West 4.6 mph - 0.04 in Rain Heavy Rain
1:35 AM 65.3 °F - 65.3 °F 100% 30.00 in 4.0 mi Calm Calm - 0.06 in   Drizzle
1:55 AM 65.3 °F - 65.3 °F 100% 30.00 in 4.0 mi West 5.8 mph - 0.08 in   Drizzle
2:15 AM 65.3 °F - 65.3 °F 100% 29.99 in 10.0 mi West 5.8 mph - N/A   Overcast
2:35 AM 65.5 °F - 65.5 °F 100% 29.98 in 7.0 mi Calm Calm - 0.01 in Rain Light Rain
2:55 AM 65.5 °F - 65.5 °F 100% 29.97 in 10.0 mi Calm Calm - 0.01 in   Overcast
3:15 AM 65.7 °F - 65.7 °F 100% 29.97 in 7.0 mi Calm Calm - N/A   Overcast
3:35 AM 65.8 °F - 65.8 °F 100% 29.96 in 7.0 mi Calm Calm - N/A   Overcast
3:55 AM 67.8 °F - 67.8 °F 100% 29.95 in 5.0 mi South 3.5 mph - N/A   Overcast
4:15 AM 68.9 °F - 68.9 °F 100% 29.95 in 7.0 mi South 4.6 mph - N/A   Overcast
4:35 AM 69.8 °F - 69.8 °F 100% 29.94 in 5.0 mi South 4.6 mph - 0.01 in   Overcast
4:55 AM 70.2 °F - 70.2 °F 100% 29.93 in 7.0 mi South 8.1 mph - 0.01 in   Overcast
5:15 AM 70.3 °F - 70.2 °F 99% 29.93 in 7.0 mi South 6.9 mph - N/A Rain Light Rain
5:35 AM 70.7 °F - 70.3 °F 99% 29.93 in 7.0 mi South 6.9 mph - 0.01 in Rain Light Rain
5:55 AM 70.7 °F - 70.3 °F 99% 29.93 in 5.0 mi South 9.2 mph - 0.01 in Rain Rain
6:15 AM 70.7 °F - 70.3 °F 99% 29.93 in 5.0 mi South 8.1 mph - N/A   Light Drizzle
6:35 AM 70.7 °F - 70.3 °F 99% 29.93 in 7.0 mi South 5.8 mph - N/A   Overcast
6:55 AM 70.9 °F - 70.3 °F 98% 29.92 in 7.0 mi South 6.9 mph - N/A   Overcast
7:15 AM 71.1 °F - 70.2 °F 97% 29.92 in 10.0 mi SSW 9.2 mph - N/A   Overcast
7:35 AM 71.1 °F - 70.2 °F 97% 29.92 in 10.0 mi SSW 9.2 mph - N/A   Overcast
7:55 AM 71.1 °F - 70.2 °F 97% 29.92 in 10.0 mi South 9.2 mph - N/A   Overcast
8:35 AM 71.1 °F - 70.0 °F 96% 29.91 in 10.0 mi South 8.1 mph - N/A   Overcast
8:55 AM 71.2 °F - 70.0 °F 96% 29.91 in 10.0 mi South 8.1 mph - N/A   Overcast
9:15 AM 71.6 °F - 70.2 °F 95% 29.92 in 7.0 mi South 11.5 mph 16.1 mph N/A   Overcast
9:35 AM 71.2 °F - 70.2 °F 96% 29.92 in 2.5 mi South 9.2 mph 18.4 mph 0.03 in Rain Rain
9:55 AM 71.2 °F - 70.3 °F 97% 29.91 in 7.0 mi South 9.2 mph 17.3 mph 0.03 in Rain Light Rain
10:15 AM 71.8 °F - 70.3 °F 95% 29.91 in 10.0 mi SSW 12.7 mph 19.6 mph N/A Rain Light Rain
10:35 AM 72.5 °F - 70.7 °F 94% 29.90 in 10.0 mi SSW 15.0 mph 21.9 mph N/A   Overcast
10:55 AM 72.7 °F - 70.5 °F 93% 29.90 in 10.0 mi South 10.4 mph 16.1 mph N/A   Overcast
11:55 AM 73.6 °F - 70.2 °F 89% 29.87 in 10.0 mi South 9.2 mph 24.2 mph N/A   Overcast
12:15 PM 74.1 °F - 70.0 °F 87% 29.86 in 10.0 mi South 13.8 mph 19.6 mph N/A   Overcast
12:35 PM 74.7 °F - 69.3 °F 83% 29.86 in 10.0 mi SSW 17.3 mph 24.2 mph N/A   Overcast
12:55 PM 75.6 °F - 68.4 °F 78% 29.85 in 10.0 mi SSW 12.7 mph 27.6 mph N/A   Overcast
1:15 PM 75.4 °F - 68.2 °F 78% 29.84 in 10.0 mi SSW 13.8 mph 31.1 mph N/A   Overcast
1:35 PM 75.6 °F - 68.2 °F 78% 29.82 in 10.0 mi South 10.4 mph 21.9 mph N/A   Overcast
2:15 PM 75.4 °F - 67.6 °F 77% 29.80 in 10.0 mi SSW 12.7 mph 24.2 mph N/A Rain Light Rain
2:35 PM 75.9 °F - 67.3 °F 74% 29.79 in 10.0 mi SSW 16.1 mph 25.3 mph N/A   Overcast
2:55 PM 76.1 °F - 67.3 °F 74% 29.78 in 10.0 mi South 10.4 mph 27.6 mph N/A   Overcast
3:15 PM 75.6 °F - 67.6 °F 76% 29.77 in 7.0 mi SSW 18.4 mph 28.8 mph N/A Rain Light Rain
3:35 PM 75.2 °F - 68.0 °F 78% 29.76 in 10.0 mi South 11.5 mph 18.4 mph N/A   Overcast
3:55 PM 71.6 °F - 69.1 °F 92% 29.75 in 5.0 mi SSW 10.4 mph 21.9 mph N/A Rain Light Rain
4:15 PM 71.4 °F - 69.3 °F 93% 29.75 in 10.0 mi South 10.4 mph 19.6 mph N/A   Overcast
4:35 PM 72.0 °F - 68.9 °F 90% 29.77 in 10.0 mi SW 16.1 mph 27.6 mph N/A Rain Light Rain
4:55 PM 70.7 °F - 68.0 °F 91% 29.78 in 10.0 mi SW 16.1 mph 29.9 mph 0.04 in   Overcast
5:15 PM 69.8 °F - 66.7 °F 90% 29.78 in 10.0 mi SW 17.3 mph 24.2 mph 0.01 in Rain Rain
5:35 PM 68.2 °F - 66.2 °F 93% 29.78 in 10.0 mi SW 15.0 mph 19.6 mph 0.02 in Rain Light Rain
5:55 PM 67.6 °F - 65.8 °F 94% 29.78 in 10.0 mi SSW 9.2 mph 19.6 mph 0.03 in   Overcast
6:15 PM 67.5 °F - 65.5 °F 93% 29.78 in 10.0 mi SSW 12.7 mph 18.4 mph N/A   Overcast
6:35 PM 67.1 °F - 64.4 °F 91% 29.79 in 10.0 mi SSW 10.4 mph 18.4 mph N/A Rain Light Rain
6:55 PM 66.2 °F - 63.5 °F 91% 29.80 in 10.0 mi SSW 11.5 mph 18.4 mph N/A   Overcast
7:15 PM 65.5 °F - 63.0 °F 92% 29.80 in 10.0 mi SSW 10.4 mph 21.9 mph N/A   Overcast
7:35 PM 64.8 °F - 62.1 °F 91% 29.82 in 10.0 mi SW 17.3 mph 21.9 mph N/A   Mostly Cloudy
7:55 PM 63.9 °F - 60.8 °F 90% 29.84 in 10.0 mi WSW 15.0 mph 19.6 mph N/A   Mostly Cloudy
8:15 PM 63.5 °F - 59.9 °F 88% 29.86 in 10.0 mi West 11.5 mph - N/A   Overcast
8:35 PM 61.9 °F - 51.6 °F 69% 29.87 in 10.0 mi West 16.1 mph 27.6 mph N/A   Mostly Cloudy
8:55 PM 58.8 °F - 47.3 °F 66% 29.89 in 10.0 mi WNW 15.0 mph 25.3 mph N/A   Clear
9:35 PM 54.0 °F - 36.7 °F 52% 29.92 in 10.0 mi WNW 11.5 mph 24.2 mph N/A   Clear
9:55 PM 52.2 °F - 32.4 °F 47% 29.95 in 10.0 mi West 15.0 mph 19.6 mph N/A   Clear
10:15 PM 50.4 °F - 31.5 °F 48% 29.97 in 10.0 mi WNW 11.5 mph 17.3 mph N/A   Clear
10:55 PM 47.7 °F - 33.1 °F 57% 30.01 in 10.0 mi WNW 4.6 mph - N/A   Clear
11:35 PM 46.2 °F 44.1 °F 32.5 °F 59% 30.03 in 10.0 mi West 4.6 mph - N/A   Clear
11:55 PM 45.0 °F 42.6 °F 34.2 °F 66% 30.04 in 10.0 mi NW 4.6 mph - N/A   Clear